Temperature
16 16 17 17 20 21 21 21 20 19 19 18 17 18 20 19 19 18 13 13 13 13 13 14 14 14 14 14 14 14 15 15 15 15 15 15 15 15 15 15 15 15 15 15 15 15 15 15 15
16 16 16 18 21 21 21 20 19 19 18 16 16 17 18 16 14 13 13 13 13 13 13 13 14 14 14 14 14 14 14 15 15 15 15 15 15 15 15 15 15 15 15 15 15 15 15 15 15
16 16 17 20 20 21 21 19 19 17 16 16 16 15 16 15 12 12 13 13 13 13 13 13 13 13 13 14 14 14 14 14 14 14 15 15 15 15 15 15 15 15 15 15 15 15 15 15 15
15 16 17 20 19 19 19 19 18 17 16 15 16 16 13 12 12 12 13 13 12 12 12 13 13 13 13 13 14 14 14 14 14 14 14 14 14 15 15 15 15 15 14 15 15 15 15 15 15
15 17 19 19 19 18 18 17 16 18 17 16 16 16 14 12 12 12 12 12 12 12 12 13 13 13 13 13 13 13 14 14 14 14 14 14 14 14 14 15 14 14 14 14 14 14 15 15 15
16 18 19 19 18 18 17 16 16 17 16 15 15 16 14 12 12 12 12 12 12 12 12 12 13 13 13 13 13 13 13 13 13 13 13 14 14 14 14 14 14 14 14 14 14 14 14 14 14
16 18 18 18 18 17 17 15 16 17 16 15 14 15 13 11 11 11 11 11 11 12 12 12 12 13 13 13 13 13 13 13 13 13 13 13 13 14 14 14 14 14 14 14 14 14 14 14 14
15 17 17 17 17 17 16 14 14 15 15 12 12 15 13 11 11 11 11 11 11 11 12 12 12 12 12 12 12 13 13 13 13 13 13 13 13 13 13 13 14 14 14 14 14 14 14 14 14
14 16 17 17 17 16 15 14 13 12 12 11 11 11 10 10 11 11 11 11 11 11 11 11 12 12 12 12 12 12 12 12 12 12 12 12 13 13 13 13 13 13 13 13 14 14 14 14 13
14 16 16 15 16 15 14 14 13 13 13 12 11 10 10 10 10 10 10 10 10 10 11 11 11 11 11 12 12 12 12 12 12 12 12 12 12 12 12 12 13 13 13 13 13 13 13 13 13
13 14 14 13 13 13 13 13 12 13 14 12 11 10 9 10 10 10 10 10 10 10 10 11 11 11 11 11 11 11 11 11 11 11 11 11 11 12 12 12 12 12 12 12 13 13 13 13 13
13 12 12 12 11 12 12 12 12 12 12 10 10 9 9 9 9 9 9 9 9 10 10 10 10 10 10 11 11 11 11 11 11 11 11 11 11 11 11 11 12 12 12 12 12 12 12 12 12
12 12 11 10 10 10 11 11 11 10 9 9 9 9 9 8 9 9 9 9 9 9 10 10 10 10 10 10 10 10 10 10 10 10 11 11 11 11 11 11 11 11 11 11 12 11 11 12 12
11 11 11 10 10 10 11 11 10 10 8 8 8 8 8 8 8 8 8 9 9 9 9 9 9 9 9 10 10 10 10 10 10 10 10 10 10 10 10 10 11 11 11 11 11 11 11 11 11
10 11 11 11 10 10 10 11 11 9 8 8 8 8 8 8 8 8 8 8 8 8 8 8 9 9 9 9 9 9 9 9 9 9 9 9 10 10 9 10 10 10 10 10 10 10 10 10 10
11 11 12 11 10 10 11 12 11 8 8 8 8 7 7 7 7 7 8 8 8 8 8 8 8 8 8 8 8 8 9 9 9 9 9 9 9 9 9 9 9 9 9 10 10 10 10 10 10
11 11 12 11 10 10 11 11 10 8 8 8 8 7 7 7 7 7 7 7 7 8 8 8 8 8 8 8 8 8 8 8 8 8 8 8 8 8 8 8 8 9 9 9 9 9 9 9 9
11 11 11 11 10 10 10 10 9 8 8 8 7 7 6 6 6 6 6 7 7 7 7 7 7 7 7 7 7 7 7 7 7 7 7 8 8 8 8 8 8 8 8 8 8 8 9 9 9
10 10 10 10 9 9 10 9 9 8 8 8 7 7 6 6 5 5 6 6 6 6 7 7 7 7 7 7 7 7 7 7 7 7 7 7 7 7 7 7 7 7 7 8 8 8 8 8 8
9 9 10 9 9 9 9 9 9 8 7 7 7 6 5 5 4 4 5 5 5 5 6 6 6 6 6 6 6 6 6 6 6 6 6 6 6 7 7 7 7 7 7 7 7 7 7 7 7
8 9 9 8 8 8 8 9 9 8 7 6 5 5 5 4 4 4 4 4 4 5 5 5 5 5 6 6 6 6 6 5 5 6 6 6 6 6 6 6 6 6 6 6 6 6 6 6 6
8 8 8 7 8 9 8 10 9 8 7 7 6 5 4 4 4 3 4 4 4 4 4 5 5 5 5 5 5 5 5 5 5 5 5 5 5 5 5 5 5 6 6 6 6 6 6 6 6
8 7 7 7 7 8 8 8 10 7 7 7 6 5 4 4 3 3 3 3 3 3 4 4 4 4 4 4 4 4 4 4 4 4 4 4 5 5 5 5 5 5 5 5 5 5 5 5 5
6 6 6 6 7 7 8 8 10 8 7 7 6 5 4 3 3 3 2 3 3 3 3 3 3 3 3 4 4 4 4 4 4 4 4 4 4 4 4 4 4 4 4 4 5 5 5 5 5
6 7 7 7 7 8 6 7 8 7 6 6 5 5 4 3 3 2 2 2 2 3 3 3 3 3 3 3 3 3 3 3 3 3 3 3 3 3 3 3 3 3 4 4 4 4 4 4 4
6 6 7 8 8 8 6 7 8 6 5 4 4 3 3 3 2 2 1 1 2 2 2 2 2 2 2 2 3 3 3 3 3 3 3 3 3 3 3 3 3 3 3 3 3 3 3 3 4
6 6 6 6 5 6 7 7 7 5 5 4 3 3 2 2 1 1 1 1 1 1 2 2 2 2 2 2 2 2 2 2 2 2 2 2 2 2 2 2 2 2 2 2 2 2 2 3 3
5 5 5 5 6 7 8 7 8 6 5 4 4 3 2 1 1 1 1 1 1 1 1 1 1 1 1 1 1 1 2 2 2 2 2 2 2 2 2 2 2 2 2 2 2 2 2 2 2
4 4 4 5 5 6 7 8 6 5 5 4 3 2 1 1 0 0 0 0 -0 -0 0 0 1 1 1 1 1 1 1 1 1 1 1 1 1 1 1 1 1 1 1 1 1 1 1 1 1
4 5 4 5 4 4 6 7 5 4 3 3 2 1 0 -0 -0 -0 -0 -0 -1 -1 -1 -0 0 0 0 0 0 0 0 0 0 1 1 1 1 1 1 1 1 1 1 1 1 1 1 1 1
Wind_Speed
5 3 2 2 4 4 6 4 3 3 2 1 1 0 0 0 1 1 3 2 2 1 1 1 3 3 4 5 6 6 6 6 6 6 6 6 5 5 4 4 4 5 5 6 6 7 7 8 8
3 2 2 3 5 7 5 4 5 2 2 2 1 0 1 1 3 3 2 3 2 2 2 2 4 4 4 5 5 6 6 6 5 6 6 6 5 5 4 3 3 4 5 6 6 7 7 7 8
1 1 2 3 5 7 4 3 3 2 2 2 2 1 1 2 2 2 2 2 1 2 2 4 5 5 5 5 5 5 5 5 5 5 5 5 5 5 5 4 3 3 4 5 6 6 7 7 7
2 2 2 4 7 5 3 2 2 4 3 1 2 2 2 2 2 2 2 1 1 2 3 4 5 5 5 6 6 6 6 6 5 5 5 4 5 4 4 4 4 3 2 4 6 6 6 7 7
1 3 4 6 7 4 2 1 2 3 2 2 2 2 2 2 3 2 2 2 2 2 3 4 5 5 5 6 6 6 6 6 5 5 5 4 4 4 4 4 3 3 2 3 5 6 6 6 6
2 3 6 8 8 4 3 2 3 3 2 1 1 2 2 3 3 3 2 2 2 3 3 4 4 5 5 5 6 6 6 6 6 5 5 4 4 4 4 4 3 2 1 3 4 5 5 6 6
3 4 6 7 7 6 3 2 3 3 3 1 1 2 3 2 3 2 2 3 3 4 3 3 3 4 6 6 6 6 6 6 6 6 6 6 5 4 4 4 3 3 1 2 4 4 5 5 5
1 3 5 7 7 6 2 2 1 2 1 1 0 1 1 1 2 2 3 3 4 4 3 3 3 3 3 5 6 6 6 6 6 7 7 6 5 5 4 4 4 4 2 1 3 4 5 5 5
2 4 7 7 6 4 3 3 1 1 2 1 1 2 3 2 2 3 3 3 3 3 3 3 3 3 3 3 4 4 5 6 5 5 6 4 4 4 3 4 5 4 3 2 2 3 4 5 6
3 6 7 3 3 3 3 2 2 3 3 1 0 2 2 2 3 2 2 1 1 2 2 2 2 3 3 3 3 3 3 4 4 4 4 4 3 3 3 4 4 4 3 2 3 3 4 3 4
3 4 4 3 1 1 2 2 1 3 3 3 2 1 1 2 2 1 1 1 1 2 2 2 2 2 2 2 2 2 3 3 3 4 4 4 3 3 3 3 2 2 1 1 1 1 2 2 2
3 3 3 2 1 2 2 2 1 3 2 2 0 1 2 2 1 0 1 1 2 2 2 2 2 2 2 2 2 2 2 3 3 4 4 4 3 2 2 2 3 2 2 1 0 0 2 2 3
5 3 2 2 1 1 1 3 2 3 2 1 2 2 2 2 1 0 1 1 1 2 2 2 2 2 2 2 2 2 2 2 2 3 3 3 2 2 2 2 2 2 2 1 0 0 1 2 3
3 3 3 2 3 2 3 4 3 3 1 1 2 2 1 1 1 1 1 2 2 1 2 2 1 1 1 1 1 2 2 2 2 3 3 3 2 2 2 2 2 2 2 1 0 0 0 1 2
3 3 3 3 3 2 3 5 5 3 2 1 1 1 1 0 1 1 2 2 2 2 2 2 1 1 1 1 1 2 2 2 2 3 3 3 3 2 2 1 1 2 2 1 0 1 1 1 1
3 4 5 3 3 3 5 8 3 2 2 2 1 1 1 1 1 2 2 3 3 2 2 2 2 1 1 1 1 2 2 2 2 2 3 3 3 3 2 1 1 2 1 1 1 0 1 1 1
4 5 7 5 3 3 6 7 2 2 3 3 2 2 1 1 2 3 3 3 3 2 2 2 2 1 1 1 1 2 2 2 2 2 3 3 3 3 2 2 2 1 1 1 1 0 0 1 1
5 6 7 7 3 4 7 7 5 4 4 4 3 2 2 1 2 3 4 4 4 3 3 3 2 2 1 1 1 1 2 2 2 2 3 3 3 3 2 2 1 1 0 1 1 0 1 1 0
4 6 7 6 3 5 8 9 8 5 5 5 4 3 2 2 2 3 4 4 4 4 4 4 3 3 2 1 1 1 1 1 1 2 3 3 3 3 2 1 1 1 0 0 0 0 1 1 0
5 6 7 5 2 4 7 10 8 5 5 5 4 3 2 2 2 3 4 4 4 4 4 4 3 3 2 1 1 1 1 1 1 1 2 3 3 3 2 1 1 1 0 0 0 0 1 0 0
5 6 6 6 5 4 6 8 6 4 3 2 3 3 2 2 2 2 3 3 4 4 4 3 3 3 2 2 1 1 1 1 1 1 1 2 3 2 2 2 2 1 1 1 1 2 2 1 1
5 4 5 6 5 4 4 7 6 5 4 3 2 2 2 2 2 2 2 3 3 4 3 3 3 3 3 2 1 1 1 2 3 2 2 2 2 2 2 2 2 2 1 2 2 2 2 2 2
3 2 4 5 5 5 5 6 5 4 6 5 3 3 3 2 2 2 2 2 3 3 3 3 3 3 3 2 2 2 2 2 2 2 2 2 2 2 2 2 2 2 2 2 2 2 2 2 3
1 1 2 3 4 6 6 7 6 4 5 4 4 3 3 2 2 2 2 2 3 3 3 3 3 4 4 3 3 3 3 3 3 3 2 2 2 2 2 2 2 2 2 2 2 2 3 3 3
1 2 2 3 4 4 1 6 6 1 3 4 4 3 3 3 2 2 2 3 3 4 4 3 3 4 4 4 4 4 4 4 3 3 3 3 2 2 2 2 2 2 2 2 2 2 2 3 3
3 3 3 4 5 4 3 6 4 1 2 3 3 3 3 3 3 2 2 3 3 3 3 3 3 4 4 4 4 4 4 3 3 3 3 3 2 3 3 3 3 3 2 2 2 3 3 3 3
2 3 2 2 3 5 5 5 5 3 3 3 3 3 4 3 3 3 3 3 3 4 4 3 3 4 4 4 4 4 4 3 3 3 3 2 2 2 3 3 3 3 3 3 3 3 3 3 3
2 2 2 3 3 6 6 6 4 3 5 4 4 4 4 3 4 4 4 4 4 4 4 4 3 4 4 4 4 3 4 4 3 3 3 2 2 2 3 3 3 3 3 3 3 3 3 4 3
2 2 3 3 4 5 7 5 1 3 4 5 5 4 4 4 4 5 5 4 4 4 4 4 4 4 4 4 4 3 3 3 3 3 3 3 2 2 2 3 3 3 3 3 3 4 4 5 4
4 4 5 4 5 5 6 6 2 2 3 4 5 5 6 5 5 5 5 5 5 5 5 5 4 4 4 4 3 3 3 3 3 3 3 3 3 2 3 3 3 3 3 3 4 4 5 5 5
Wind_Direction
327 313 262 232 212 217 225 206 197 165 166 106 66 213 189 3 318 43 58 38 15 48 73 74 39 58 72 70 68 65 63 66 66 62 59 61 69 77 83 89 101 104 115 128 134 129 125 122 119
323 291 227 223 226 221 215 202 195 183 118 126 117 139 126 88 28 54 62 6 3 37 62 61 53 69 78 71 68 64 60 62 65 65 60 57 60 63 71 77 94 101 116 125 131 133 131 126 124
280 291 220 206 223 232 208 167 178 147 132 179 142 64 24 69 64 55 18 347 24 57 60 66 54 74 78 72 65 61 56 55 61 66 63 58 59 57 59 58 64 91 113 124 126 132 135 134 129
225 189 206 222 220 232 238 157 160 163 150 163 175 130 111 52 28 20 20 25 99 88 68 69 59 71 79 74 65 57 55 51 55 61 60 54 55 58 56 52 48 61 103 132 132 134 132 137 135
231 208 205 218 228 224 221 219 190 193 172 146 181 160 134 80 38 47 62 81 92 81 66 73 65 64 73 76 70 62 56 49 50 53 50 44 41 45 52 49 42 41 65 130 139 141 135 135 140
188 212 220 223 221 217 212 215 207 203 174 145 183 178 125 76 45 38 65 77 76 65 56 73 64 59 63 72 68 61 54 49 48 48 43 35 29 30 37 43 39 38 64 128 136 143 144 142 146
211 208 227 225 221 222 208 194 212 209 193 168 280 178 137 83 30 36 72 70 61 56 55 57 64 68 65 66 63 59 54 50 47 43 37 32 26 24 25 30 28 24 41 140 144 145 139 138 145
230 198 210 218 221 227 183 166 198 239 200 67 286 221 147 23 27 71 78 71 58 47 42 42 47 53 59 66 61 59 56 52 49 44 38 36 37 35 32 27 29 22 21 132 138 144 141 137 135
220 217 221 217 217 210 163 172 120 50 132 112 65 11 19 68 99 95 78 65 51 36 28 28 34 38 41 53 57 58 57 51 48 43 40 32 19 19 21 28 29 26 28 73 111 138 146 148 143
200 219 228 219 219 191 164 184 165 172 175 193 167 34 51 95 114 107 87 59 24 7 6 13 21 26 34 41 46 40 39 40 37 31 25 18 12 13 7 34 30 26 33 67 84 126 147 165 161
184 211 208 212 217 199 185 190 192 212 230 252 255 234 98 103 117 129 95 5 348 350 4 5 12 22 30 34 39 34 32 30 25 24 18 16 15 12 6 8 17 10 17 59 89 150 159 150 139
182 203 219 220 229 233 221 198 202 241 267 331 268 146 142 138 137 181 328 350 352 357 358 5 11 20 28 29 36 33 31 28 22 20 19 20 19 6 1 358 353 348 343 330 326 75 165 145 137
202 210 226 232 204 226 224 231 240 247 279 33 110 132 153 162 183 277 334 342 344 354 354 360 9 21 31 35 25 30 27 21 13 18 19 16 17 358 349 349 350 346 355 359 341 97 168 159 144
188 195 215 248 243 244 237 251 236 249 213 147 134 151 177 192 241 313 348 337 331 336 342 359 7 12 22 24 21 26 24 24 16 20 18 12 9 3 346 342 354 359 353 346 11 125 217 163 148
181 201 222 244 241 216 228 248 235 235 214 212 182 203 207 262 320 324 326 328 323 336 352 358 349 4 10 6 17 28 27 23 21 19 17 15 11 358 346 340 3 4 347 333 86 132 122 125 144
193 217 230 231 236 218 234 252 219 194 213 221 241 258 259 311 334 337 338 337 334 343 355 6 6 3 13 9 16 33 34 28 21 12 10 11 14 5 358 3 1 357 348 357 38 100 144 133 147
207 232 242 237 227 236 235 256 238 233 231 240 252 264 276 317 343 349 351 356 358 355 358 7 16 7 25 19 27 39 39 28 19 14 10 0 358 2 17 13 7 351 9 45 38 53 139 140 111
228 236 243 242 246 250 243 253 261 246 242 253 260 268 283 312 336 359 9 15 15 16 18 21 29 21 19 23 26 38 42 29 17 15 11 0 358 3 11 18 7 0 23 58 60 76 98 136 142
248 244 253 260 281 264 255 261 266 255 250 252 257 264 278 301 357 21 22 25 27 23 23 22 25 21 18 359 331 303 327 341 357 9 5 359 355 358 6 3 352 346 341 66 75 95 105 73 175
254 255 264 275 283 271 269 268 263 248 246 253 251 249 265 307 6 20 20 25 24 20 14 14 14 14 7 335 309 293 292 284 322 356 360 358 350 346 348 342 315 312 329 82 102 160 222 304 260
251 254 262 273 291 255 273 261 237 222 214 238 254 255 252 275 314 356 12 16 16 12 5 0 358 359 357 347 339 2 336 313 315 327 339 348 336 329 335 324 319 320 283 243 232 236 225 227 233
251 256 256 258 259 258 254 272 238 219 229 235 258 270 270 280 299 335 351 359 359 358 358 356 358 358 355 353 323 298 292 291 294 299 301 318 324 324 323 311 310 301 278 256 244 243 243 228 230
271 294 260 259 252 266 238 255 254 210 232 238 251 274 282 286 294 315 329 339 349 355 359 357 1 0 356 346 322 295 284 287 296 297 295 302 311 318 319 309 298 293 284 269 256 251 243 236 236
245 252 256 234 237 251 239 240 265 220 230 239 249 272 298 297 301 311 324 340 349 356 2 2 3 357 351 343 327 310 299 291 288 292 294 294 302 306 311 298 288 285 284 278 266 254 246 243 238
242 253 254 233 232 248 217 243 260 236 248 252 255 264 298 305 299 307 322 334 342 348 351 349 349 345 341 335 328 312 296 288 275 278 283 288 293 296 305 300 292 292 288 285 278 265 254 248 243
228 242 254 270 270 279 234 247 267 272 277 284 271 271 312 316 316 314 312 316 326 332 330 330 329 327 328 324 323 318 303 289 283 277 277 278 281 290 302 293 285 284 283 279 267 264 260 253 246
207 219 288 281 285 271 251 258 272 253 266 287 288 293 307 308 311 308 306 313 318 317 315 309 306 313 319 317 317 320 314 298 288 287 279 279 288 297 296 289 286 282 274 266 261 260 260 254 249
287 189 197 222 259 269 268 263 265 250 263 280 293 299 309 310 309 309 306 306 310 308 304 302 297 299 307 311 312 312 309 299 287 280 278 279 289 297 289 283 276 273 265 257 254 256 259 254 251
185 198 227 231 259 267 279 278 300 264 279 286 298 309 312 315 313 308 304 305 312 313 308 304 301 302 307 311 313 310 310 302 288 280 278 280 282 292 288 284 274 270 267 259 251 251 251 249 250
244 233 220 241 246 249 270 279 63 275 301 301 306 312 311 310 310 305 306 312 316 314 312 307 303 300 303 309 310 305 307 302 289 283 280 277 278 282 280 278 273 271 271 268 258 255 253 252 253
Height
1512 1513 1514 1516 1515 1511 1509 1510 1511 1513 1515 1518 1518 1517 1516 1517 1518 1524 1524 1522 1523 1524 1525 1525 1526 1526 1526 1527 1527 1527 1527 1527 1527 1527 1527 1527 1527 1527 1527 1527 1527 1527 1527 1528 1528 1528 1528 1528 1528
1513 1514 1516 1516 1511 1510 1509 1509 1512 1514 1517 1519 1519 1519 1518 1520 1522 1523 1521 1521 1523 1524 1525 1525 1526 1526 1526 1526 1526 1526 1526 1526 1526 1526 1527 1527 1527 1527 1527 1527 1527 1527 1527 1527 1528 1528 1528 1529 1529
1513 1514 1517 1513 1509 1506 1507 1511 1512 1516 1518 1519 1519 1520 1520 1522 1522 1522 1521 1521 1522 1524 1524 1525 1525 1525 1526 1526 1526 1526 1526 1526 1526 1526 1526 1526 1526 1526 1526 1527 1527 1527 1527 1527 1527 1528 1528 1528 1529
1514 1516 1516 1512 1509 1509 1509 1512 1515 1516 1518 1519 1519 1520 1521 1522 1522 1521 1521 1521 1522 1523 1524 1524 1524 1525 1525 1525 1525 1525 1525 1525 1525 1525 1525 1525 1525 1525 1526 1526 1526 1526 1526 1527 1527 1527 1527 1528 1528
1514 1514 1512 1511 1510 1511 1514 1516 1517 1515 1517 1519 1519 1519 1521 1522 1521 1521 1521 1521 1522 1523 1523 1524 1524 1524 1524 1524 1525 1525 1524 1524 1524 1524 1524 1524 1525 1525 1525 1525 1525 1525 1525 1526 1526 1526 1526 1527 1528
1515 1512 1509 1507 1508 1512 1515 1517 1517 1516 1517 1519 1520 1519 1521 1521 1521 1521 1521 1521 1522 1522 1522 1523 1523 1524 1524 1524 1524 1524 1524 1523 1523 1523 1523 1523 1523 1523 1523 1523 1524 1524 1524 1524 1525 1525 1526 1526 1527
1514 1510 1507 1506 1508 1511 1515 1517 1517 1516 1517 1519 1520 1519 1520 1521 1520 1520 1521 1521 1521 1522 1522 1522 1522 1522 1523 1523 1523 1523 1522 1522 1522 1522 1522 1522 1522 1522 1522 1522 1522 1522 1523 1523 1524 1524 1524 1525 1526
1512 1511 1509 1509 1508 1510 1515 1517 1518 1517 1518 1520 1520 1519 1520 1521 1519 1520 1520 1520 1521 1521 1521 1521 1521 1521 1521 1521 1521 1521 1521 1521 1521 1521 1520 1520 1520 1521 1521 1521 1521 1521 1521 1522 1522 1522 1523 1524 1524
1512 1511 1507 1508 1509 1511 1515 1517 1518 1519 1519 1519 1520 1520 1520 1519 1519 1519 1520 1520 1519 1519 1519 1519 1519 1520 1519 1520 1520 1520 1520 1519 1519 1519 1519 1519 1519 1519 1519 1519 1519 1519 1520 1520 1520 1521 1521 1522 1523
1511 1508 1507 1510 1511 1512 1515 1516 1518 1518 1518 1519 1519 1519 1519 1518 1518 1518 1518 1518 1518 1518 1518 1518 1518 1518 1518 1518 1518 1518 1518 1518 1518 1517 1517 1517 1517 1517 1517 1517 1517 1518 1518 1518 1519 1519 1520 1520 1521
1511 1509 1511 1513 1514 1515 1515 1517 1518 1517 1516 1517 1518 1518 1517 1517 1518 1517 1517 1517 1517 1517 1516 1516 1516 1516 1516 1516 1516 1516 1516 1516 1516 1516 1515 1515 1515 1515 1515 1516 1516 1516 1516 1516 1516 1517 1518 1519 1519
1512 1513 1514 1514 1516 1516 1516 1516 1517 1517 1517 1517 1517 1517 1517 1516 1516 1516 1516 1516 1516 1515 1515 1515 1515 1514 1514 1514 1514 1514 1514 1514 1514 1514 1513 1513 1513 1513 1514 1513 1513 1513 1514 1514 1514 1515 1516 1517 1517
1511 1513 1515 1516 1516 1516 1516 1516 1516 1517 1517 1516 1516 1516 1516 1516 1515 1516 1515 1515 1514 1513 1513 1513 1513 1512 1512 1512 1512 1512 1512 1512 1512 1512 1511 1511 1511 1511 1511 1511 1511 1511 1511 1511 1512 1513 1514 1514 1515
1512 1514 1515 1515 1515 1516 1516 1515 1516 1515 1516 1516 1515 1515 1515 1514 1514 1514 1513 1513 1512 1512 1512 1511 1511 1511 1511 1511 1511 1511 1510 1510 1510 1510 1509 1509 1509 1509 1509 1509 1509 1509 1509 1509 1510 1510 1511 1511 1512
1514 1513 1513 1514 1514 1515 1516 1513 1513 1514 1515 1514 1514 1514 1513 1513 1513 1512 1512 1511 1511 1510 1510 1510 1509 1509 1509 1509 1509 1509 1509 1508 1508 1508 1507 1507 1507 1507 1507 1506 1506 1506 1507 1507 1507 1508 1509 1509 1509
1512 1510 1508 1511 1513 1513 1515 1506 1511 1513 1513 1513 1513 1513 1512 1512 1511 1511 1510 1510 1509 1509 1509 1508 1508 1507 1507 1507 1507 1507 1507 1507 1506 1506 1505 1505 1504 1504 1504 1504 1504 1504 1504 1504 1505 1506 1506 1507 1507
1508 1506 1505 1508 1511 1511 1510 1506 1510 1512 1512 1512 1511 1511 1511 1510 1510 1509 1508 1508 1507 1507 1507 1506 1506 1506 1505 1505 1505 1505 1504 1504 1504 1504 1503 1502 1502 1502 1502 1502 1501 1501 1502 1502 1502 1503 1504 1504 1505
1504 1503 1504 1505 1508 1510 1507 1506 1508 1510 1511 1510 1510 1510 1509 1508 1508 1507 1506 1506 1505 1505 1505 1504 1504 1504 1503 1503 1503 1503 1502 1502 1502 1501 1501 1500 1500 1499 1499 1499 1499 1499 1499 1499 1500 1500 1501 1502 1502
1506 1505 1504 1505 1508 1509 1505 1504 1505 1507 1508 1508 1508 1508 1508 1507 1507 1506 1505 1504 1503 1503 1502 1502 1502 1501 1501 1501 1500 1500 1500 1499 1499 1499 1498 1498 1497 1497 1497 1497 1497 1497 1497 1497 1497 1498 1499 1499 1500
1508 1507 1505 1507 1509 1508 1505 1503 1502 1505 1506 1506 1506 1506 1506 1506 1505 1504 1503 1502 1502 1501 1501 1500 1500 1499 1499 1499 1498 1498 1498 1497 1497 1496 1496 1495 1495 1495 1494 1494 1494 1494 1494 1494 1495 1496 1496 1497 1498
1509 1507 1507 1508 1508 1508 1507 1498 1498 1501 1503 1504 1504 1504 1504 1504 1503 1502 1502 1501 1500 1499 1498 1498 1498 1498 1497 1497 1496 1496 1495 1495 1495 1494 1493 1493 1493 1492 1492 1492 1492 1492 1492 1492 1493 1494 1494 1495 1496
1507 1509 1509 1509 1506 1500 1504 1492 1491 1497 1499 1501 1502 1502 1502 1502 1501 1501 1500 1499 1498 1498 1497 1497 1496 1496 1495 1495 1494 1494 1493 1492 1492 1491 1491 1490 1490 1490 1489 1489 1489 1489 1489 1490 1490 1491 1492 1492 1493
1508 1510 1510 1508 1505 1503 1502 1500 1485 1494 1495 1497 1499 1500 1500 1500 1499 1499 1498 1498 1497 1497 1496 1496 1495 1494 1493 1492 1492 1491 1491 1491 1490 1489 1489 1488 1488 1487 1487 1487 1487 1487 1487 1487 1488 1488 1489 1489 1490
1512 1511 1510 1508 1505 1503 1497 1496 1481 1487 1490 1493 1496 1498 1498 1497 1497 1497 1497 1496 1496 1495 1494 1494 1493 1492 1491 1490 1489 1489 1488 1488 1488 1487 1487 1486 1486 1485 1484 1484 1484 1484 1484 1484 1485 1485 1486 1486 1487
1511 1508 1503 1500 1499 1492 1500 1497 1485 1489 1492 1493 1494 1495 1495 1495 1495 1495 1494 1494 1493 1492 1492 1491 1490 1489 1489 1488 1487 1486 1486 1486 1485 1485 1484 1483 1483 1483 1482 1482 1482 1482 1481 1482 1482 1482 1483 1483 1484
1509 1508 1503 1497 1490 1487 1500 1492 1485 1491 1493 1493 1494 1494 1494 1494 1493 1493 1492 1492 1491 1490 1489 1489 1488 1487 1486 1485 1484 1484 1483 1483 1482 1482 1482 1481 1480 1480 1480 1479 1479 1479 1479 1479 1479 1479 1479 1480 1481
1509 1508 1509 1507 1508 1502 1487 1487 1488 1490 1491 1492 1492 1492 1492 1492 1491 1491 1490 1490 1488 1487 1487 1486 1485 1484 1483 1482 1482 1481 1480 1479 1479 1479 1479 1478 1477 1477 1476 1476 1476 1476 1476 1476 1476 1476 1476 1477 1477
1512 1510 1510 1508 1501 1489 1482 1482 1480 1486 1488 1489 1490 1490 1490 1490 1489 1489 1488 1487 1486 1485 1484 1483 1482 1481 1480 1480 1478 1477 1477 1476 1476 1476 1475 1475 1474 1474 1474 1473 1473 1473 1473 1473 1473 1473 1473 1473 1473
1512 1513 1510 1507 1504 1494 1484 1478 1484 1486 1487 1488 1489 1489 1489 1488 1487 1486 1486 1485 1483 1482 1481 1480 1479 1478 1477 1476 1475 1474 1473 1473 1473 1473 1472 1472 1472 1471 1471 1471 1470 1470 1470 1470 1470 1470 1470 1470 1470
1511 1508 1508 1506 1504 1502 1491 1484 1487 1488 1488 1489 1489 1488 1487 1487 1486 1484 1483 1482 1480 1479 1478 1476 1475 1474 1474 1473 1472 1471 1470 1470 1470 1470 1469 1469 1469 1469 1468 1468 1467 1467 1467 1467 1467 1467 1467 1467 1467